TimeMDT,TemperatureF,Dew PointF,Humidity,Sea Level PressureIn,VisibilityMPH,Wind Direction,Wind SpeedMPH,Gust SpeedMPH,PrecipitationIn,Events,Conditions,WindDirDegrees,DateUTC
12:53 AM,39.0,35.1,86,29.86,10.0,SE,4.6,-,N/A,,Clear,140,2013-04-29 06:53:00
1:53 AM,43.0,37.0,80,29.81,10.0,East,8.1,-,N/A,,Mostly Cloudy,100,2013-04-29 07:53:00
2:53 AM,46.0,35.1,66,29.77,10.0,SSE,17.3,21.9,N/A,,Mostly Cloudy,150,2013-04-29 08:53:00
3:53 AM,41.0,35.1,79,29.77,10.0,ESE,10.4,-,N/A,,Partly Cloudy,110,2013-04-29 09:53:00
4:53 AM,41.0,34.0,76,29.74,10.0,ESE,11.5,-,N/A,,Clear,120,2013-04-29 10:53:00
5:53 AM,39.0,34.0,82,29.74,10.0,ESE,10.4,-,N/A,,Clear,120,2013-04-29 11:53:00
6:53 AM,42.1,36.0,79,29.71,10.0,SSE,6.9,-,N/A,,Clear,150,2013-04-29 12:53:00
7:53 AM,46.9,37.0,68,29.69,10.0,SSE,4.6,-,N/A,,Clear,150,2013-04-29 13:53:00
8:53 AM,54.0,30.9,41,29.67,10.0,NW,5.8,-,N/A,,Clear,310,2013-04-29 14:53:00
9:53 AM,64.0,21.0,19,29.61,10.0,West,19.6,28.8,N/A,,Clear,280,2013-04-29 15:53:00
10:53 AM,66.0,19.0,17,29.59,10.0,West,19.6,27.6,N/A,,Clear,270,2013-04-29 16:53:00
11:53 AM,69.1,21.0,16,29.57,10.0,West,25.3,31.1,N/A,,Clear,280,2013-04-29 17:53:00
12:53 PM,72.0,21.0,15,29.55,10.0,WSW,25.3,33.4,N/A,,Clear,240,2013-04-29 18:53:00
1:53 PM,73.0,21.9,15,29.49,10.0,West,27.6,41.4,N/A,,Clear,260,2013-04-29 19:53:00
2:53 PM,71.1,23.0,16,29.45,10.0,West,28.8,36.8,N/A,,Clear,260,2013-04-29 20:53:00
3:53 PM,72.0,23.0,16,29.44,10.0,West,26.5,34.5,N/A,,Clear,260,2013-04-29 21:53:00
4:53 PM,70.0,23.0,17,29.42,10.0,West,31.1,47.2,N/A,,Clear,260,2013-04-29 22:53:00
5:53 PM,69.1,21.9,17,29.42,10.0,West,35.7,44.9,N/A,,Clear,270,2013-04-29 23:53:00
6:53 PM,68.0,24.1,19,29.42,10.0,West,25.3,35.7,N/A,,Clear,270,2013-04-30 00:53:00
7:53 PM,64.9,24.1,21,29.42,10.0,West,24.2,35.7,N/A,,Clear,280,2013-04-30 01:53:00
8:53 PM,64.0,25.0,23,29.43,10.0,West,33.4,40.3,N/A,,Clear,280,2013-04-30 02:53:00
9:53 PM,61.0,26.1,26,29.46,10.0,WNW,18.4,-,N/A,,Clear,290,2013-04-30 03:53:00
10:14 PM,48.2,35.6,62,29.63,10.0,North,26.5,33.4,N/A,,Clear,10,2013-04-30 04:14:00
10:53 PM,44.1,36.0,73,29.56,10.0,North,23.0,35.7,N/A,,Partly Cloudy,10,2013-04-30 04:53:00
11:53 PM,43.0,35.1,74,29.60,10.0,North,18.4,27.6,N/A,,Clear,10,2013-04-30 05:53:00